EW7481 Weather Reports


Display with metric or nautical units.
time (UTC)temp
F
wind
direction
speed
MPH
gust
MPH
rain 1hr
in
rain 24hr
in
rain mn
in
humidity
%
barometer
mb
20260503054553 51 350 0.0 0.0 0.00 0.00 0.00 68 1013.4
20260503053142 51 333 0.0 0.0 0.00 0.00 0.00 66 1013.4
20260503051548 53 333 0.0 0.0 0.00 0.00 0.00 63 1013.4
20260503050040 54 333 0.0 0.0 0.00 0.00 0.00 60 1013.3
20260503044539 54 333 0.0 0.0 0.00 0.00 0.00 57 1013.3
20260503043041 55 333 0.0 0.0 0.00 0.00 0.00 54 1013.3
20260503041539 57 333 0.0 0.0 0.00 0.00 0.00 50 1013.1
20260503040038 59 333 0.0 0.0 0.00 0.00 0.00 47 1013.0
20260503034543 60 333 0.0 0.0 0.00 0.00 0.00 45 1012.8
20260503033050 62 333 0.0 0.0 0.00 0.00 0.00 42 1012.7
20260503031539 63 333 0.0 0.0 0.00 0.00 0.00 39 1012.4
20260503030038 66 333 0.0 0.0 0.00 0.00 0.00 34 1012.2
20260503024544 67 333 0.0 0.0 0.00 0.00 0.00 33 1012.1
20260503023037 67 333 0.0 0.0 0.00 0.00 0.00 33 1012.1
20260503021536 68 333 0.0 0.0 0.00 0.00 0.00 32 1012.1
20260503020035 69 323 0.0 0.0 0.00 0.00 0.00 31 1012.1
20260503014534 70 323 0.0 1.0 0.00 0.00 0.00 29 1012.1
20260503013036 71 348 0.0 3.0 0.00 0.00 0.00 28 1012.2
20260503011534 72 323 0.0 4.0 0.00 0.00 0.00 26 1012.2
20260503010033 72 326 0.0 4.0 0.00 0.00 0.00 25 1012.3
20260503004536 73 85 0.0 4.0 0.00 0.00 0.00 26 1012.4
20260503003036 74 356 0.0 4.0 0.00 0.00 0.00 24 1012.4
20260503001529 75 6 0.0 4.0 0.00 0.00 0.00 24 1012.4
20260503000028 75 323 0.0 4.0 0.00 0.00 0.00 25 1012.3
20260502234532 76 316 1.0 6.0 0.00 0.00 0.00 21 1012.4
20260502233026 76 348 0.0 2.0 0.00 0.00 0.00 21 1012.5
20260502231527 77 329 2.0 6.0 0.00 0.00 0.00 20 1012.7
20260502230022 76 156 1.0 5.0 0.00 0.00 0.00 20 1012.7
20260502224520 77 334 1.0 7.0 0.00 0.00 0.00 26 1013.0
20260502223018 76 307 0.0 6.0 0.00 0.00 0.00 22 1013.1
20260502221516 77 141 0.0 5.0 0.00 0.00 0.00 22 1013.2
20260502220019 76 168 0.0 7.0 0.00 0.00 0.00 20 1013.4
20260502214511 76 72 0.0 5.0 0.00 0.00 0.00 21 1013.6
20260502213024 77 351 1.0 7.0 0.00 0.00 0.00 21 1013.6
20260502211514 76 206 0.0 4.0 0.00 0.00 0.00 23 1013.8
20260502210008 77 285 1.0 5.0 0.00 0.00 0.00 21 1014.0
20260502204505 76 165 0.0 4.0 0.00 0.00 0.00 27 1014.1
20260502203004 75 312 0.0 7.0 0.00 0.00 0.00 22 1014.3
20260502201505 75 163 1.0 2.0 0.00 0.00 0.00 21 1014.5
20260502200109 75 347 0.0 2.0 0.00 0.00 0.00 27 1014.6
20260502194602 74 170 2.0 5.0 0.00 0.00 0.00 25 1014.6
20260502193112 73 333 0.0 5.0 0.00 0.00 0.00 23 1014.9
20260502191553 74 169 2.0 7.0 0.00 0.00 0.00 22 1015.0
20260502190052 73 113 1.0 4.0 0.00 0.00 0.00 24 1015.1
20260502184556 74 174 1.0 5.0 0.00 0.00 0.00 24 1015.2
20260502183047 73 207 0.0 2.0 0.00 0.00 0.00 31 1015.3
20260502181545 72 113 0.0 3.0 0.00 0.00 0.00 36 1015.5
20260502163014 57 174 1.0 3.0 0.00 0.00 0.00 58 1016.3
20260502161509 55 175 0.0 1.0 0.00 0.00 0.00 65 1016.4
20260502151611 48 175 0.0 0.0 0.00 0.00 0.00 78 1016.7
20260502123040 37 165 0.0 0.0 0.00 0.00 0.00 88 1016.6
20260502121538 38 165 0.0 0.0 0.00 0.00 0.00 88 1016.4
20260502114537 37 165 0.0 0.0 0.00 0.00 0.00 88 1016.5
20260502113043 37 165 0.0 0.0 0.00 0.00 0.00 88 1016.4
20260502111533 37 166 0.0 0.0 0.00 0.00 0.00 88 1016.5
20260502110036 38 165 0.0 0.0 0.00 0.00 0.00 88 1016.4
20260502104534 39 166 0.0 0.0 0.00 0.00 0.00 88 1016.3
20260502103029 38 165 0.0 0.0 0.00 0.00 0.00 88 1016.4
20260502101528 38 165 0.0 0.0 0.00 0.00 0.00 88 1016.4
20260502091520 40 165 0.0 0.0 0.00 0.00 0.00 86 1016.4
20260502071501 45 165 0.0 0.0 0.00 0.00 0.00 80 1016.4
20260502070116 46 165 0.0 0.0 0.00 0.00 0.00 79 1016.4
20260502064558 47 165 0.0 0.0 0.00 0.00 0.00 77 1016.4
20260502063118 47 165 0.0 0.0 0.00 0.00 0.00 76 1016.3
20260502061558 47 165 0.0 0.0 0.00 0.00 0.00 75 1016.1